Wind_Speed
110 109 108 107 106 105 104 105 105 106 107 109 110 111 112 113 113 113 113 112 112 111 110 109 107 106 105 105 104 103 103 102 102 101 100 100 100 99 99 99 98 98
116 116 115 115 113 112 111 110 109 109 110 110 111 112 113 114 115 116 117 117 117 116 115 114 113 112 110 109 109 108 107 107 106 106 105 105 105 104 104 104 103 103
121 122 122 121 121 120 118 117 116 115 115 114 114 114 114 115 115 116 117 118 119 120 120 120 119 118 117 116 115 114 113 112 112 111 110 110 110 110 109 109 108 108
122 124 126 127 127 127 126 125 124 123 122 121 120 119 118 118 117 117 117 117 118 119 121 122 122 123 123 122 122 121 120 119 119 118 117 116 115 115 114 114 114 113
123 124 126 128 130 132 132 132 131 130 129 128 127 125 124 123 123 122 121 121 120 120 121 121 122 123 124 125 126 126 126 126 126 125 123 122 121 120 119 119 118 118
124 126 127 128 130 132 134 135 136 136 136 135 134 133 131 131 130 129 128 127 127 126 126 125 125 124 124 124 125 126 127 128 129 129 128 127 126 125 124 124 123 123
120 124 127 130 131 133 134 135 137 139 140 141 140 140 139 138 137 136 135 134 134 133 132 132 132 131 131 130 129 128 128 128 128 129 129 129 129 129 129 128 128 127
116 119 122 126 129 133 135 137 138 139 141 142 144 145 145 144 144 143 142 141 141 140 139 139 138 138 138 138 137 136 135 134 133 132 132 131 131 131 131 132 131 131
113 116 118 121 123 127 131 135 138 140 142 143 144 146 147 148 148 149 149 149 148 148 147 146 146 145 144 144 143 143 143 142 142 141 139 138 137 136 135 135 135 134
111 113 116 118 120 122 124 127 131 135 139 142 145 147 149 150 150 151 152 152 153 153 153 153 153 152 151 151 150 149 149 148 148 148 147 146 145 143 142 141 140 139
111 113 114 116 118 119 121 123 124 127 130 134 138 142 146 149 152 153 154 154 155 155 156 157 157 157 157 157 157 156 156 155 154 153 152 152 151 150 149 148 147 145
111 112 113 115 116 118 119 121 122 123 124 126 128 131 135 140 144 148 151 154 156 157 158 158 159 159 160 160 160 161 161 160 160 159 158 158 157 156 155 154 153 152
110 111 112 114 115 116 118 119 120 121 122 123 124 125 127 129 132 136 140 144 147 151 154 156 158 160 161 162 162 163 163 163 162 162 162 161 161 161 160 160 159 158
107 109 110 112 113 115 116 117 118 119 120 121 122 123 124 125 126 128 130 132 135 138 142 145 149 152 156 159 161 163 164 165 164 164 163 163 162 162 162 162 162 162
104 105 107 108 110 111 113 114 116 117 119 120 121 122 123 123 124 125 126 127 129 130 132 134 136 139 142 146 151 155 158 161 162 163 164 163 163 163 162 163 163 163
100 101 103 104 106 107 109 110 112 113 115 116 118 119 120 121 122 123 124 125 125 126 127 128 129 131 133 135 138 141 143 146 149 152 154 156 158 159 161 162 163 163
96 98 99 101 102 104 105 106 107 109 110 112 113 115 116 117 118 119 121 122 122 123 123 124 126 127 129 130 131 132 133 134 135 137 139 142 144 147 150 153 156 159
94 95 96 97 99 100 101 102 104 105 106 108 109 110 111 112 113 114 115 117 118 118 118 120 122 124 125 126 126 127 128 128 128 128 129 131 132 134 136 139 142 146
93 93 94 95 96 97 98 99 100 101 103 104 105 107 107 108 109 111 112 113 113 114 114 115 117 119 121 121 121 122 124 124 123 122 122 123 125 127 128 130 131 133
93 93 93 93 94 94 95 96 97 98 99 100 101 101 103 104 105 107 108 109 110 111 111 113 115 116 117 117 118 119 119 120 119 117 117 117 119 120 122 124 125 127
92 92 92 93 93 93 93 94 94 95 95 96 96 97 98 99 100 101 102 103 105 107 108 109 111 113 114 114 115 116 117 116 115 114 114 114 114 116 118 119 120 122
92 92 92 92 92 92 93 93 93 93 93 93 93 94 94 95 96 96 97 98 100 101 102 102 104 106 108 109 111 112 113 113 112 112 112 112 113 114 115 115 116 117
91 91 91 91 92 92 92 92 93 93 92 92 91 92 93 93 93 94 95 96 97 98 98 97 98 101 102 103 104 106 107 107 108 109 110 110 111 112 112 113 113 114
90 90 90 90 91 91 91 92 92 92 91 91 91 91 91 92 92 93 94 95 95 95 95 95 96 98 99 99 100 101 101 101 102 103 104 105 106 108 109 110 110 111
88 88 89 89 89 90 90 91 91 91 90 90 90 90 90 91 92 92 93 93 94 93 94 94 95 96 97 98 98 98 98 98 98 98 99 100 101 102 103 105 105 107
87 87 87 88 88 89 89 90 90 90 90 90 90 90 89 90 92 92 91 91 92 92 93 94 94 95 95 96 97 97 96 96 95 95 96 96 96 97 98 100 101 102
Wind_Direction
256 256 255 254 253 253 252 252 253 253 253 252 252 252 252 252 252 253 253 253 253 253 253 253 253 254 254 254 255 255 255 256 256 257 257 257 257 257 257 257 256 256
257 256 255 254 254 253 252 252 252 252 252 252 252 252 252 251 251 252 252 252 253 253 253 253 253 253 253 253 254 254 255 255 255 255 256 256 256 256 256 256 256 255
256 256 256 255 254 254 253 252 252 251 251 252 252 252 252 252 252 252 252 252 252 252 252 253 253 253 253 253 253 253 253 254 255 255 255 255 256 256 256 256 255 255
256 256 255 255 255 254 254 253 252 252 252 251 251 251 252 252 252 252 252 252 252 252 252 252 253 253 253 253 253 253 253 253 254 255 255 255 255 255 255 256 256 256
257 256 256 255 255 254 254 254 253 253 252 252 252 252 252 252 252 252 252 252 253 253 253 253 253 253 253 252 252 252 252 253 253 254 254 254 254 254 254 254 255 255
258 257 257 256 255 255 254 254 254 253 253 253 253 252 252 252 252 252 253 253 253 253 253 253 253 253 253 253 253 253 253 252 253 253 253 253 253 253 253 253 253 254
261 259 258 257 256 256 255 255 254 254 254 254 253 253 253 253 253 253 253 253 253 253 253 253 253 253 253 253 253 253 253 253 253 253 253 253 253 253 253 253 253 253
264 262 261 259 258 257 256 256 255 255 254 254 254 254 254 254 254 253 253 253 253 253 254 254 254 254 254 253 253 253 253 253 253 254 254 254 254 253 253 253 253 253
265 264 264 263 261 260 259 258 257 256 255 255 255 255 255 255 254 254 254 254 254 254 254 254 254 254 254 254 254 254 254 254 254 254 254 254 255 255 255 255 255 255
266 265 265 264 264 263 262 261 259 258 257 256 256 256 256 256 255 255 255 255 255 255 255 255 255 255 255 255 255 255 255 255 255 255 255 255 255 255 255 255 255 255
268 267 266 265 265 265 264 264 263 261 260 259 258 257 257 256 256 256 256 256 256 256 256 256 256 256 256 256 256 256 256 256 256 256 256 256 256 256 256 256 256 256
269 268 267 267 266 266 265 265 265 264 263 263 262 261 260 259 258 257 257 257 257 257 257 257 257 257 257 257 257 257 257 257 257 256 256 256 256 256 256 256 256 256
270 270 269 268 268 267 266 266 266 265 265 265 264 263 263 262 261 260 259 259 258 258 258 257 257 257 257 258 258 258 258 258 258 257 257 257 257 257 257 257 257 257
270 270 269 269 268 268 267 267 267 267 266 266 265 265 264 264 263 262 262 261 261 260 259 259 258 258 258 258 258 258 258 258 258 258 258 258 258 258 258 258 258 258
271 271 270 269 269 268 268 267 267 267 267 266 266 266 265 265 265 264 264 263 263 262 262 261 260 260 259 259 258 258 258 259 259 259 259 259 259 259 259 259 259 259
273 272 271 271 270 269 269 268 267 267 267 266 266 266 266 266 266 265 265 265 264 264 263 263 263 262 262 261 260 260 260 260 260 260 260 260 260 260 260 260 260 259
273 273 272 271 270 270 269 269 269 268 268 267 267 266 266 266 266 266 266 265 265 265 265 264 264 264 263 263 262 262 261 261 260 260 260 260 260 260 260 260 260 260
273 272 271 270 270 269 269 269 268 268 268 268 268 267 267 267 267 266 266 266 266 266 265 265 265 264 264 264 263 263 262 262 261 261 261 261 261 261 260 260 260 260
275 274 273 272 271 270 269 269 268 268 267 267 267 267 267 267 267 267 267 267 267 266 266 266 265 265 265 265 265 264 264 264 263 262 262 261 261 261 261 261 260 260
278 277 276 275 274 273 272 271 270 269 268 267 267 267 266 266 266 266 266 266 266 266 266 266 266 266 266 266 266 266 265 265 265 264 264 263 262 262 262 261 261 260
279 278 277 277 276 275 274 273 272 271 271 270 269 269 268 267 267 267 266 266 266 265 265 265 265 265 265 266 266 266 266 266 266 266 265 265 264 263 262 261 261 260
280 279 279 278 277 277 276 275 274 273 273 272 272 271 270 270 269 269 268 267 267 266 265 265 265 265 265 264 264 265 265 266 266 266 266 265 265 264 263 262 262 261
280 280 279 279 278 277 277 276 276 275 274 274 273 273 272 272 271 270 270 269 268 268 268 267 267 267 266 265 264 264 264 264 264 264 264 264 264 264 264 264 264 263
281 280 280 279 279 278 278 277 277 276 275 275 274 273 273 272 272 271 271 270 270 270 270 269 269 268 268 267 266 266 265 264 264 264 264 264 264 264 264 264 264 264
281 280 280 280 279 279 278 278 277 277 276 276 275 274 274 273 272 272 271 271 271 271 270 270 269 269 269 268 268 267 267 266 266 265 265 264 264 264 264 264 264 264
281 281 280 279 279 279 278 278 278 277 277 276 276 275 275 274 273 273 272 272 272 272 271 270 269 269 269 269 269 268 268 267 267 267 266 266 265 265 265 265 265 264
Height
10529 10529 10529 10529 10528 10528 10528 10527 10527 10526 10526 10527 10527 10528 10529 10530 10530 10531 10532 10533 10534 10535 10536 10537 10538 10538 10539 10540 10540 10541 10542 10542 10543 10545 10547 10548 10549 10549 10550 10552 10554 10555
10510 10510 10510 10511 10511 10511 10511 10510 10510 10510 10509 10509 10510 10510 10511 10512 10513 10514 10515 10516 10517 10518 10520 10521 10522 10523 10524 10524 10525 10526 10526 10527 10528 10530 10532 10533 10533 10535 10536 10537 10539 10541
10491 10491 10491 10491 10492 10492 10492 10493 10492 10492 10492 10492 10493 10493 10494 10494 10495 10496 10497 10498 10500 10501 10502 10503 10505 10506 10507 10508 10509 10510 10510 10511 10512 10513 10516 10517 10517 10520 10521 10522 10524 10525
10471 10471 10471 10471 10472 10473 10473 10474 10474 10474 10475 10475 10476 10476 10477 10477 10477 10478 10479 10480 10481 10482 10483 10485 10486 10487 10489 10491 10492 10492 10493 10494 10495 10496 10498 10500 10501 10503 10505 10506 10508 10509
10452 10451 10451 10451 10452 10452 10453 10454 10454 10455 10456 10457 10458 10459 10459 10460 10460 10461 10461 10462 10463 10463 10464 10465 10466 10467 10469 10470 10472 10473 10474 10475 10477 10478 10480 10481 10482 10485 10488 10489 10491 10493
10432 10431 10431 10431 10431 10432 10433 10433 10435 10436 10436 10437 10439 10440 10441 10442 10443 10444 10444 10444 10445 10446 10446 10446 10447 10447 10448 10450 10451 10452 10454 10455 10457 10458 10461 10463 10463 10466 10469 10471 10474 10476
10412 10411 10411 10410 10411 10411 10412 10412 10414 10415 10416 10417 10418 10419 10421 10422 10423 10424 10425 10426 10426 10426 10427 10427 10428 10428 10429 10430 10431 10432 10433 10434 10436 10437 10440 10443 10445 10447 10448 10451 10456 10459
10392 10391 10391 10391 10391 10391 10391 10391 10392 10394 10395 10396 10397 10398 10400 10402 10403 10403 10404 10405 10406 10406 10406 10407 10408 10408 10409 10410 10412 10413 10414 10414 10416 10418 10420 10422 10424 10427 10429 10431 10435 10440
10374 10372 10371 10371 10370 10370 10370 10371 10371 10372 10373 10375 10375 10376 10377 10379 10380 10382 10382 10383 10384 10385 10385 10386 10387 10388 10389 10390 10390 10392 10393 10395 10396 10398 10401 10403 10405 10407 10409 10411 10414 10420
10355 10354 10352 10351 10350 10349 10349 10349 10350 10351 10351 10353 10354 10354 10355 10356 10357 10359 10360 10361 10361 10362 10363 10364 10365 10366 10368 10369 10369 10370 10372 10374 10375 10377 10380 10384 10386 10388 10390 10391 10394 10399
10335 10334 10333 10332 10330 10329 10328 10328 10328 10329 10330 10330 10331 10332 10333 10333 10334 10335 10337 10338 10339 10340 10340 10341 10342 10343 10345 10346 10347 10347 10349 10352 10354 10356 10358 10362 10366 10369 10371 10373 10375 10380
10315 10314 10314 10313 10312 10311 10309 10309 10308 10308 10309 10309 10310 10310 10311 10311 10312 10313 10314 10315 10317 10317 10318 10318 10319 10320 10321 10322 10323 10323 10325 10328 10331 10334 10337 10340 10344 10347 10350 10353 10356 10360
10296 10295 10294 10293 10292 10291 10290 10289 10289 10289 10289 10289 10289 10289 10290 10290 10291 10291 10292 10292 10293 10294 10295 10295 10297 10297 10297 10297 10298 10298 10300 10303 10307 10311 10314 10318 10322 10326 10329 10332 10335 10339
10278 10276 10275 10274 10272 10271 10270 10270 10269 10269 10269 10269 10268 10268 10269 10269 10269 10269 10270 10269 10269 10270 10271 10272 10273 10275 10275 10273 10272 10273 10274 10277 10281 10286 10290 10295 10300 10304 10308 10311 10314 10317
10260 10258 10257 10255 10254 10253 10252 10251 10251 10250 10249 10248 10247 10247 10247 10247 10247 10248 10248 10248 10248 10248 10248 10249 10251 10252 10252 10249 10248 10250 10251 10253 10258 10262 10267 10271 10276 10282 10286 10288 10291 10294
10243 10241 10239 10237 10235 10234 10233 10232 10232 10230 10229 10229 10228 10227 10226 10226 10227 10227 10226 10226 10227 10228 10228 10229 10229 10230 10228 10225 10225 10227 10229 10232 10236 10240 10245 10249 10253 10258 10262 10265 10267 10269
10227 10225 10222 10220 10217 10216 10215 10214 10213 10211 10210 10210 10209 10208 10207 10207 10207 10207 10206 10205 10205 10207 10209 10209 10208 10206 10203 10202 10205 10206 10207 10210 10215 10220 10223 10226 10230 10234 10239 10242 10243 10244
10210 10208 10205 10203 10201 10199 10198 10197 10195 10194 10192 10191 10190 10189 10189 10189 10189 10188 10187 10186 10185 10187 10189 10189 10188 10184 10180 10181 10184 10184 10184 10186 10193 10200 10205 10207 10209 10212 10215 10219 10221 10221
10191 10190 10188 10186 10184 10183 10181 10180 10178 10177 10176 10174 10174 10173 10172 10172 10171 10169 10168 10167 10166 10168 10170 10169 10167 10162 10160 10162 10164 10164 10163 10165 10171 10180 10186 10189 10191 10191 10193 10195 10198 10200
10172 10171 10169 10167 10166 10165 10164 10162 10161 10160 10158 10157 10157 10157 10156 10155 10154 10152 10151 10150 10149 10150 10151 10150 10147 10143 10143 10146 10146 10145 10145 10146 10151 10159 10164 10168 10171 10172 10171 10173 10175 10177
10155 10153 10151 10150 10149 10147 10146 10145 10143 10143 10141 10141 10141 10140 10139 10138 10137 10136 10135 10134 10132 10131 10132 10133 10130 10126 10127 10129 10128 10127 10128 10130 10134 10139 10143 10146 10149 10149 10149 10149 10152 10153
10139 10137 10135 10134 10132 10131 10129 10128 10126 10126 10125 10125 10125 10124 10122 10121 10120 10119 10118 10117 10115 10112 10113 10116 10114 10110 10110 10113 10111 10110 10112 10115 10118 10121 10123 10125 10126 10125 10125 10127 10130 10131
10125 10123 10121 10119 10117 10115 10113 10111 10110 10109 10109 10109 10110 10108 10106 10105 10104 10103 10101 10099 10098 10096 10096 10100 10099 10093 10092 10095 10094 10094 10097 10100 10102 10102 10104 10105 10107 10106 10106 10108 10110 10111
10110 10109 10106 10104 10102 10100 10098 10096 10094 10093 10093 10093 10093 10093 10091 10089 10087 10087 10085 10082 10082 10082 10081 10083 10082 10077 10074 10077 10077 10076 10079 10083 10084 10086 10088 10089 10090 10090 10089 10091 10092 10092
10097 10095 10093 10090 10087 10085 10083 10081 10079 10078 10077 10076 10076 10076 10076 10073 10070 10070 10070 10068 10067 10067 10066 10066 10065 10062 10059 10059 10059 10059 10061 10065 10067 10070 10072 10072 10073 10074 10073 10074 10075 10075
10083 10081 10079 10076 10073 10070 10068 10066 10064 10063 10062 10061 10060 10059 10059 10057 10054 10053 10055 10054 10051 10051 10050 10048 10048 10048 10046 10043 10042 10043 10045 10049 10051 10053 10054 10055 10057 10057 10057 10057 10057 10057